Weather History for Monterey, CA

Change the Weather History Date:

Wednesday, January 30, 2013

  Actual Average Record
Temperature  
Mean Temperature 49 °F 52 °F  
Max Temperature 58 °F 60 °F 70 °F (2003)
Min Temperature 40 °F 43 °F 34 °F (2002)
Degree Days  
Heating Degree Days 16    
Month to date heating degree days 454  
Since 1 July heating degree days 1812  
Cooling Degree Days 0    
Month to date cooling degree days 0  
Year to date cooling degree days 0  
Moisture  
Dew Point 42 °F    
Average Humidity 74    
Maximum Humidity 86    
Minimum Humidity 62    
Precipitation  
Precipitation 0.00 in - 0.75 in (2011)
Month to date precipitation 0.81  
Year to date precipitation 0.81  
Since 1 July precipitation 9.05  
Sea Level Pressure  
Sea Level Pressure 30.33 in    
Wind  
Wind Speed 3 mph (NNE)    
Max Wind Speed 9 mph    
Max Gust Speed 10 mph    
Visibility 10 miles    
Events      
T = Trace of Precipitation, MM = Missing Value Source: NWS Daily Summary

Daily Weather History Graph

Daily Weather History Graph

Search for Another Location

Airport:

Trip Planner

Search our weather history database for the weather conditions in past years. The results will help you decide how hot, cold, wet, or windy it might be!

Date:

Astronomy

Jan. 30, 2013 Rise Set
Actual Time 7:10 AM PST 5:31 PM PST
Civil Twilight 6:43 AM PST 5:58 PM PST
Nautical Twilight 6:12 AM PST 6:29 PM PST
Astronomical Twilight 5:41 AM PST 7:00 PM PST
Moon 9:27 PM PST (1/30) 8:48 AM PST (1/30)
Length of Visible Light 11h 15m
Length of Day
10h 21m
Waning Gibbous, 87% of the Moon is Illuminated
Jan 30
Waning Gibbous
Feb 3
Last Quarter
Feb 9
New
Feb 17
First Quarter
Feb 25
Full

Hourly Weather History & Observations

Time (PST) Temp. Windchill Dew Point Humidity Pressure Visibility Wind Dir Wind Speed Gust Speed Precip Events Conditions
12:54 AM 44.1 °F 41.5 °F 39.0 °F 82% 30.31 in 10.0 mi East 4.6 mph - N/A   Clear
1:54 AM 44.1 °F - 39.9 °F 85% 30.31 in 10.0 mi Calm Calm - N/A   Clear
2:54 AM 42.1 °F - 37.9 °F 85% 30.31 in 10.0 mi Calm Calm - N/A   Clear
3:54 AM 42.1 °F - 37.9 °F 85% 30.31 in 10.0 mi Calm Calm - N/A   Clear
4:54 AM 41.0 °F 38.0 °F 37.9 °F 89% 30.32 in 10.0 mi East 4.6 mph - N/A   Clear
5:54 AM 41.0 °F 39.0 °F 37.9 °F 89% 30.33 in 10.0 mi ESE 3.5 mph - N/A   Clear
6:54 AM 42.1 °F 37.1 °F 37.0 °F 82% 30.34 in 10.0 mi East 8.1 mph - N/A   Clear
7:54 AM 45.0 °F 42.6 °F 39.0 °F 80% 30.36 in 10.0 mi ENE 4.6 mph - N/A   Clear
8:54 AM 48.9 °F - 42.1 °F 77% 30.39 in 10.0 mi WSW 3.5 mph - N/A   Clear
9:54 AM 54.0 °F - 46.0 °F 75% 30.40 in 10.0 mi Calm Calm - N/A   Clear
10:54 AM 55.9 °F - 46.9 °F 72% 30.40 in 9.0 mi NW 3.5 mph - N/A   Clear
11:54 AM 55.9 °F - 46.0 °F 69% 30.38 in 10.0 mi WNW 5.8 mph - N/A   Clear
12:54 PM 57.9 °F - 46.0 °F 65% 30.35 in 10.0 mi NW 4.6 mph - N/A   Clear
1:54 PM 57.9 °F - 45.0 °F 62% 30.32 in 10.0 mi NW 4.6 mph - N/A   Clear
2:54 PM 57.9 °F - 45.0 °F 62% 30.32 in 10.0 mi NW 4.6 mph - N/A   Clear
3:54 PM 57.0 °F - 46.0 °F 67% 30.32 in 10.0 mi NNW 4.6 mph - N/A   Clear
4:54 PM 55.0 °F - 46.0 °F 72% 30.32 in 10.0 mi NNW 3.5 mph - N/A   Clear
5:54 PM 52.0 °F - 44.1 °F 74% 30.31 in 10.0 mi Calm Calm - N/A   Clear
6:54 PM 48.0 °F - 42.1 °F 80% 30.31 in 10.0 mi East 3.5 mph - N/A   Clear
7:54 PM 46.9 °F - 41.0 °F 80% 30.32 in 10.0 mi East 4.6 mph - N/A   Clear
8:54 PM 45.0 °F - 39.9 °F 82% 30.31 in 10.0 mi Calm Calm - N/A   Clear
9:54 PM 45.0 °F - 39.9 °F 82% 30.31 in 10.0 mi Calm Calm - N/A   Clear
10:54 PM 44.1 °F 42.5 °F 39.9 °F 85% 30.31 in 10.0 mi ESE 3.5 mph - N/A   Clear
11:54 PM 43.0 °F - 39.9 °F 89% 30.32 in 10.0 mi Calm Calm - N/A   Clear